| time (UTC) | temp C | wind direction | speed KPH | gust KPH | rain 1hr cm | rain 24hr cm | rain mn cm | humidity % | barometer mb |
| 20260904040059 | 20 | 284 | 1.6 | 6.4 | 0.00 | 0.00 | 0.00 | 74 | 1020.4 |
| 20260904034558 | 20 | 285 | 3.2 | 6.4 | 0.00 | 0.00 | 0.00 | 75 | 1020.7 |
| 20260904033056 | 20 | 142 | 0.0 | 11.3 | 0.00 | 0.00 | 0.00 | 76 | 1020.6 |
| 20260904031529 | 20 | 273 | 3.2 | 9.7 | 0.00 | 0.00 | 0.00 | 76 | 1020.5 |
| 20260904030032 | 20 | 294 | 1.6 | 4.8 | 0.00 | 0.00 | 0.00 | 76 | 1020.6 |
| 20260904024522 | 20 | 279 | 0.0 | 6.4 | 0.00 | 0.00 | 0.00 | 76 | 1020.6 |
| 20260904023052 | 19 | 337 | 0.0 | 4.8 | 0.00 | 0.00 | 0.00 | 77 | 1020.5 |
| 20260904021556 | 20 | 278 | 0.0 | 3.2 | 0.00 | 0.00 | 0.00 | 76 | 1020.5 |
| 20260904020034 | 20 | 324 | 0.0 | 4.8 | 0.00 | 0.00 | 0.00 | 74 | 1020.6 |
| 20260904014558 | 20 | 275 | 0.0 | 3.2 | 0.00 | 0.00 | 0.00 | 75 | 1020.4 |
| 20260904013027 | 20 | 36 | 0.0 | 6.4 | 0.00 | 0.00 | 0.00 | 76 | 1020.4 |
| 20260904011533 | 20 | 266 | 1.6 | 9.7 | 0.00 | 0.00 | 0.00 | 76 | 1020.3 |
| 20260904010040 | 21 | 289 | 3.2 | 9.7 | 0.00 | 0.00 | 0.00 | 75 | 1020.5 |
| 20260904004525 | 20 | 274 | 0.0 | 4.8 | 0.00 | 0.00 | 0.00 | 76 | 1020.4 |
| 20260904003100 | 21 | 288 | 0.0 | 6.4 | 0.00 | 0.00 | 0.00 | 74 | 1020.5 |
| 20260904001534 | 22 | 283 | 0.0 | 6.4 | 0.00 | 0.00 | 0.00 | 72 | 1020.6 |
| 20260904000103 | 22 | 348 | 1.6 | 9.7 | 0.00 | 0.00 | 0.00 | 73 | 1020.6 |
| 20260903234547 | 21 | 317 | 0.0 | 8.0 | 0.00 | 0.00 | 0.00 | 77 | 1020.8 |
| 20260903233103 | 20 | 332 | 3.2 | 9.7 | 0.00 | 0.00 | 0.00 | 78 | 1020.8 |
| 20260903231535 | 21 | 284 | 0.0 | 6.4 | 0.00 | 0.00 | 0.00 | 76 | 1020.9 |
| 20260903230107 | 21 | 282 | 3.2 | 4.8 | 0.00 | 0.00 | 0.00 | 76 | 1020.8 |
| 20260903224539 | 21 | 277 | 1.6 | 6.4 | 0.00 | 0.00 | 0.00 | 76 | 1020.7 |
| 20260903223057 | 21 | 283 | 0.0 | 6.4 | 0.00 | 0.00 | 0.00 | 78 | 1020.7 |
| 20260903221543 | 21 | 306 | 0.0 | 6.4 | 0.00 | 0.00 | 0.00 | 80 | 1020.7 |
| 20260903220026 | 20 | 273 | 0.0 | 6.4 | 0.00 | 0.00 | 0.00 | 80 | 1020.6 |
| 20260903214608 | 20 | 319 | 0.0 | 3.2 | 0.00 | 0.00 | 0.00 | 80 | 1020.7 |
| 20260903213054 | 20 | 281 | 0.0 | 3.2 | 0.00 | 0.00 | 0.00 | 81 | 1020.6 |
| 20260903211530 | 21 | 308 | 0.0 | 3.2 | 0.00 | 0.00 | 0.00 | 80 | 1020.5 |
| 20260903210104 | 20 | 50 | 1.6 | 4.8 | 0.00 | 0.00 | 0.00 | 81 | 1020.7 |
| 20260903204601 | 20 | 42 | 0.0 | 3.2 | 0.00 | 0.00 | 0.00 | 81 | 1020.5 |
| 20260903203017 | 20 | 331 | 0.0 | 3.2 | 0.00 | 0.00 | 0.00 | 81 | 1020.4 |
| 20260903201544 | 20 | 332 | 1.6 | 4.8 | 0.00 | 0.00 | 0.00 | 81 | 1020.4 |
| 20260903200015 | 20 | 265 | 0.0 | 3.2 | 0.00 | 0.00 | 0.00 | 80 | 1020.3 |
| 20260903194525 | 21 | 287 | 1.6 | 3.2 | 0.00 | 0.00 | 0.00 | 79 | 1020.3 |
| 20260903193008 | 21 | 309 | 0.0 | 3.2 | 0.00 | 0.00 | 0.00 | 78 | 1020.1 |
| 20260903191516 | 21 | 279 | 0.0 | 1.6 | 0.00 | 0.00 | 0.00 | 77 | 1019.9 |
| 20260903190002 | 22 | 324 | 0.0 | 3.2 | 0.00 | 0.00 | 0.00 | 76 | 1019.8 |
| 20260903184519 | 22 | 306 | 0.0 | 1.6 | 0.00 | 0.00 | 0.00 | 75 | 1019.6 |
| 20260903183006 | 23 | 307 | 0.0 | 3.2 | 0.00 | 0.00 | 0.00 | 74 | 1019.5 |
| 20260903181527 | 23 | 320 | 1.6 | 3.2 | 0.00 | 0.00 | 0.00 | 73 | 1019.3 |
| 20260903180041 | 25 | 241 | 0.0 | 0.0 | 0.00 | 0.00 | 0.00 | 71 | 1019.1 |
| 20260903174545 | 26 | 150 | 0.0 | 0.0 | 0.00 | 0.00 | 0.00 | 68 | 1019.0 |
| 20260903173035 | 27 | 126 | 0.0 | 1.6 | 0.00 | 0.00 | 0.00 | 64 | 1018.8 |
| 20260903171548 | 28 | 126 | 0.0 | 0.0 | 0.00 | 0.00 | 0.00 | 62 | 1018.8 |
| 20260903170024 | 28 | 126 | 0.0 | 0.0 | 0.00 | 0.00 | 0.00 | 56 | 1018.9 |
| 20260903164517 | 29 | 124 | 1.6 | 3.2 | 0.00 | 0.00 | 0.00 | 51 | 1018.8 |
| 20260903163025 | 30 | 116 | 1.6 | 4.8 | 0.00 | 0.00 | 0.00 | 48 | 1018.8 |
| 20260903161556 | 30 | 123 | 0.0 | 3.2 | 0.00 | 0.00 | 0.00 | 45 | 1018.8 |
| 20260903160101 | 30 | 197 | 0.0 | 3.2 | 0.00 | 0.00 | 0.00 | 45 | 1018.8 |
| 20260903154518 | 31 | 192 | 0.0 | 4.8 | 0.00 | 0.00 | 0.00 | 44 | 1019.0 |
| 20260903153041 | 30 | 132 | 0.0 | 6.4 | 0.00 | 0.00 | 0.00 | 46 | 1018.9 |
| 20260903151505 | 31 | 111 | 1.6 | 4.8 | 0.00 | 0.00 | 0.00 | 43 | 1019.0 |
| 20260903144542 | 31 | 132 | 1.6 | 6.4 | 0.00 | 0.00 | 0.00 | 40 | 1019.3 |
| 20260903143001 | 30 | 151 | 0.0 | 4.8 | 0.00 | 0.00 | 0.00 | 41 | 1019.3 |
| 20260903141556 | 31 | 183 | 1.6 | 6.4 | 0.00 | 0.00 | 0.00 | 41 | 1019.3 |
| 20260903140045 | 30 | 138 | 3.2 | 9.7 | 0.00 | 0.00 | 0.00 | 43 | 1019.6 |
| 20260903134550 | 30 | 252 | 0.0 | 4.8 | 0.00 | 0.00 | 0.00 | 43 | 1019.7 |
| 20260903133104 | 30 | 234 | 3.2 | 8.0 | 0.00 | 0.00 | 0.00 | 44 | 1019.8 |
| 20260903131531 | 30 | 122 | 0.0 | 3.2 | 0.00 | 0.00 | 0.00 | 43 | 1019.8 |
| 20260903130039 | 30 | 219 | 0.0 | 8.0 | 0.00 | 0.00 | 0.00 | 42 | 1019.9 |
| 20260903124534 | 30 | 227 | 3.2 | 11.3 | 0.00 | 0.00 | 0.00 | 42 | 1020.2 |
| 20260903123100 | 30 | 250 | 4.8 | 12.9 | 0.00 | 0.00 | 0.00 | 42 | 1020.4 |
| 20260903121511 | 30 | 237 | 1.6 | 9.7 | 0.00 | 0.00 | 0.00 | 42 | 1020.4 |
| 20260903120010 | 29 | 219 | 1.6 | 6.4 | 0.00 | 0.00 | 0.00 | 41 | 1020.5 |
| 20260903114504 | 30 | 306 | 1.6 | 6.4 | 0.00 | 0.00 | 0.00 | 40 | 1020.7 |
| 20260903113041 | 28 | 197 | 1.6 | 6.4 | 0.00 | 0.00 | 0.00 | 43 | 1021.0 |
| 20260903111508 | 28 | 234 | 3.2 | 11.3 | 0.00 | 0.00 | 0.00 | 42 | 1021.1 |
| 20260903110055 | 28 | 209 | 1.6 | 6.4 | 0.00 | 0.00 | 0.00 | 44 | 1021.0 |
| 20260903104611 | 27 | 256 | 1.6 | 9.7 | 0.00 | 0.00 | 0.00 | 45 | 1021.1 |
| 20260903103021 | 28 | 224 | 0.0 | 8.0 | 0.00 | 0.00 | 0.00 | 50 | 1021.4 |
| 20260903101604 | 27 | 213 | 1.6 | 4.8 | 0.00 | 0.00 | 0.00 | 48 | 1021.6 |
| 20260903100021 | 26 | 221 | 1.6 | 6.4 | 0.00 | 0.00 | 0.00 | 50 | 1021.8 |
| 20260903094535 | 26 | 268 | 1.6 | 11.3 | 0.00 | 0.00 | 0.00 | 50 | 1021.8 |
| 20260903093008 | 26 | 289 | 3.2 | 9.7 | 0.00 | 0.00 | 0.00 | 52 | 1021.6 |
| 20260903091508 | 25 | 213 | 1.6 | 8.0 | 0.00 | 0.00 | 0.00 | 52 | 1021.6 |
| 20260903090047 | 25 | 265 | 3.2 | 9.7 | 0.00 | 0.00 | 0.00 | 52 | 1021.6 |
| 20260903084601 | 25 | 298 | 4.8 | 9.7 | 0.00 | 0.00 | 0.00 | 54 | 1021.7 |
| 20260903083105 | 25 | 261 | 3.2 | 4.8 | 0.00 | 0.00 | 0.00 | 52 | 1021.6 |
| 20260903081520 | 25 | 343 | 0.0 | 4.8 | 0.00 | 0.00 | 0.00 | 56 | 1021.4 |
| 20260903080013 | 24 | 325 | 0.0 | 6.4 | 0.00 | 0.00 | 0.00 | 54 | 1021.5 |
| 20260903074508 | 23 | 280 | 0.0 | 4.8 | 0.00 | 0.00 | 0.00 | 58 | 1021.5 |
| 20260903073018 | 23 | 8 | 1.6 | 6.4 | 0.00 | 0.00 | 0.00 | 60 | 1021.4 |
| 20260903071520 | 22 | 285 | 0.0 | 4.8 | 0.00 | 0.00 | 0.00 | 64 | 1021.4 |
| 20260903070014 | 22 | 270 | 1.6 | 4.8 | 0.00 | 0.00 | 0.00 | 65 | 1021.4 |
| 20260903064505 | 21 | 328 | 0.0 | 8.0 | 0.00 | 0.00 | 0.00 | 70 | 1021.5 |
| 20260903063101 | 21 | 344 | 0.0 | 3.2 | 0.00 | 0.00 | 0.00 | 69 | 1021.6 |
| 20260903061535 | 21 | 338 | 1.6 | 6.4 | 0.00 | 0.00 | 0.00 | 70 | 1021.5 |
| 20260903060045 | 20 | 8 | 0.0 | 6.4 | 0.00 | 0.00 | 0.00 | 73 | 1021.6 |
| 20260903054509 | 19 | 321 | 0.0 | 4.8 | 0.00 | 0.00 | 0.00 | 76 | 1021.3 |
| 20260903053038 | 18 | 279 | 0.0 | 3.2 | 0.00 | 0.00 | 0.00 | 76 | 1021.0 |
| 20260903051547 | 18 | 279 | 0.0 | 3.2 | 0.00 | 0.00 | 0.00 | 74 | 1020.9 |
| 20260903050014 | 20 | 276 | 0.0 | 4.8 | 0.00 | 0.00 | 0.00 | 71 | 1020.8 |
| 20260903044604 | 19 | 327 | 3.2 | 4.8 | 0.00 | 0.00 | 0.00 | 73 | 1020.7 |
| 20260903043057 | 18 | 324 | 1.6 | 4.8 | 0.00 | 0.00 | 0.00 | 77 | 1020.5 |
| 20260903041544 | 18 | 266 | 0.0 | 4.8 | 0.00 | 0.00 | 0.00 | 78 | 1020.5 |